Location: Hains Lake
(37.8540°N, 99.8578°W)
Time: 09:35:49
(UTC+00:00)

Tiros 1 despin weight - Pass Details

Date: 22 April 2021
Orbit: 593 x 642 km, 48.2° (Epoch: 07 May)

Event Time Altitude Azimuth Distance (km) Brightness Sun altitude
Rises 15:48:19 0° 305° (NW) 2,878 ? 44.5°
Reaches altitude 10° 15:50:44 10° 312° (NW) 1,963 ? 45.0°
Maximum altitude 15:55:02 43° 25° (NNE) 848 ? 45.8°
Drops below altitude 10° 15:59:16 10° 97° (E) 1,931 ? 46.5°
Sets 16:01:38 0° 105° (ESE) 2,826 ? 46.9°
